Printer-friendly version
Follow the MPC on Twitter Follow the MPC on Facebook The MPC blog
Minor Planet Center

MPEC 2009-X12 : 2008 SE82

The following Minor Planet Electronic Circular may be linked-to from your own Web pages, but must not otherwise be redistributed electronically.

A form allowing access to any MPEC is at the bottom of this page.


Read MPEC 2009-X11 Read MPEC 2009-X13


M.P.E.C. 2009-X12                                Issued 2009 Dec. 3, 20:34 UT

     The Minor Planet Electronic Circulars contain information on unusual
         minor planets and routine data on comets.  They are published
   on behalf of Commission 20 of the International Astronomical Union by the
          Minor Planet Center, Smithsonian Astrophysical Observatory,
                          Cambridge, MA 02138, U.S.A.

             Prepared using the Tamkin Foundation Computer Network

                              MPC@CFA.HARVARD.EDU
          URL http://www.cfa.harvard.edu/iau/mpc.html  ISSN 1523-6714

                                   2008 SE82

Additional Observations:
     K08S82E  C2008 09 29.31891 00 40 56.85 -01 43 10.4          20.6 V EX012703
     K08S82E  C2008 09 29.32552 00 40 56.60 -01 43 09.6          20.1 V EX012703
     K08S82E  C2008 09 29.33208 00 40 56.24 -01 43 09.4          20.4 V EX012703
     K08S82E  C2008 09 29.33872 00 40 56.10 -01 43 08.9          20.1 V EX012703
     K08S82E  C2008 10 02.31078 00 39 06.62 -01 41 02.5          20.4 V EX012G96
     K08S82E  C2008 10 02.31818 00 39 06.33 -01 41 02.1          20.3 V EX012G96
     K08S82E  C2008 10 02.32559 00 39 06.04 -01 41 01.8          20.2 V EX012G96
     K08S82E  C2008 10 02.33303 00 39 05.76 -01 41 01.5          20.0 V EX012G96
     K08S82E  C2008 10 17.24341 00 30 28.05 -01 24 52.1          20.0 V EX012691
     K08S82E  C2008 10 17.28031 00 30 26.88 -01 24 48.6          20.4 V EX012691
     K08S82E  C2008 10 17.31721 00 30 25.67 -01 24 45.3          20.6 V EX012691
     K08S82E  C2008 11 24.13899 00 19 50.91 +00 17 21.8          20.6 V EX012G96
     K08S82E  C2008 11 24.14741 00 19 50.91 +00 17 23.7          21.1 V EX012G96
     K08S82E  C2008 11 24.15573 00 19 50.91 +00 17 25.4          21.1 V EX012G96
     K08S82E  C2008 11 24.16403 00 19 50.91 +00 17 27.6          21.1 V EX012G96

Observer details:

691 Steward Observatory, Kitt Peak.  Observers R. S. McMillan, R. A. Mastaler.
    0.9-m f/3 reflector + CCD.
703 Catalina Sky Survey.  Observer R. A. Kowalski.  Measurers E. C. Beshore, A.
    Boattini, G. J. Garradd, A. R. Gibbs, A. D. Grauer, R. E. Hill, R. A.
    Kowalski, S. M. Larson, R. H. McNaught.  0.68-m f/1.8 Schmidt + CCD.
G96 Mt. Lemmon Survey.  Observer R. A. Kowalski, R. E. Hill.   Measurers
    E. C. Beshore, E. J. Christensen, G. J. Garradd, A. R. Gibbs, A. D. Grauer,
    R. E. Hill, R. A. Kowalski, S. M. Larson, R. H. McNaught.
    1.5-m reflector + CCD.

Orbital elements:
2008 SE82
Epoch 2010 Jan. 4.0 TT = JDT 2455200.5                  MPC
M   7.72316              (2000.0)            P               Q
n   0.01137180     Peri.  300.41355     +0.77111241     +0.62728630
a  19.5846789      Node    21.35626     -0.43117841     +0.64053603
e   0.8363447      Incl.   17.42893     -0.46847715     +0.44297347
P  86.67           H   14.8           G   0.15           U   3
Residuals in seconds of arc
080924 G96  0.3-  0.6-    080929 703  1.2+  1.8+    081017 691  0.2+  0.0
080924 G96  0.0   0.6-    080929 703  0.4-  1.7+    081017 691  0.1+  0.1+
080924 G96  0.4-  0.6-    080929 703  1.2+  1.9+    081124 G96  0.1-  0.2+
080924 G96  0.4-  0.7-    081002 G96  0.1+  0.4-    081124 G96  0.0   0.0
080927 J87  0.5-  0.5-    081002 G96  0.1-  0.3-    081124 G96  0.1+  0.3-
080927 J87  0.1-  0.6-    081002 G96  0.2-  0.4-    081124 G96  0.1+  0.0
080927 J87  0.4-  0.8-    081002 G96  0.2-  0.4-
080929 703  1.2+  1.2+    081017 691  0.4-  0.2-

Ephemeris:
2008 SE82                a,e,i = 19.58, 0.84, 17                 q = 3.2051
Date    TT    R. A. (2000) Decl.     Delta      r     Elong.  Phase     V
2009 11 25    02 58.10   +28 17.6    5.086    6.039   163.5     2.7    22.5
2009 12 05    02 53.38   +28 02.7    5.197    6.098   154.0     4.1    22.7
2009 12 15    02 49.54   +27 47.1    5.336    6.157   143.8     5.4    22.8
2009 12 25    02 46.77   +27 32.4    5.499    6.216   133.4     6.6    23.0
2010 01 04    02 45.17   +27 20.2    5.684    6.276   123.1     7.5    23.1
2010 01 14    02 44.78   +27 11.4    5.884    6.335   113.1     8.2    23.2
2010 01 24    02 45.56   +27 06.8    6.096    6.394   103.2     8.6    23.3

Timothy B. Spahr             (C) Copyright 2009 MPC           M.P.E.C. 2009-X12

Read MPEC 2009-X11 Read MPEC 2009-X13


MPEC number:

Enter an MPEC number in one of the following forms:

  • 1997-B01 (the full form)
  • J97B01 (the packed version of the full form)
  • B01 (the abbreviated form)

Valid HTML 4.01!